Regional Weather Roundup
Issued by NWS

Home | Current Version | Previous Version | Graphics & Text | Print | Product List | Glossary On
Versions: 1 2 3 4 5 6 7 8 9 10 11 12 13 14 15 16 17 18 19 20 21 22 23 24 25 26 27 28 29 30 31 32 33 34 35 36 37 38 39 40 41 42 43 44 45 46 47 48 49 50
000
ASUS43 KLMK 281010
RWRKY
KENTUCKY REGIONAL WEATHER ROUNDUP
NATIONAL WEATHER SERVICE LOUISVILLE KY
600 AM EDT WED JUN 28 2017

NOTE "FAIR" INDICATES FEW OR NO CLOUDS BELOW 12,000 FEET
WITH NO SIGNIFICANT WEATHER AND/OR OBSTRUCTIONS TO VISIBILITY.

KYZ001>023-026-027-061>063-070>075-281100-
WESTERN AND SOUTH CENTRAL KENTUCKY

CITY           SKY/WX    TMP DP  RH WIND       PRES   REMARKS
PADUCAH        CLEAR     63  55  75 SE5       30.06R
HENDERSON      CLEAR     59  53  80 SE3       30.09R
OWENSBORO      CLEAR     59  54  83 CALM      30.10R
HOPKINSVILLE   CLEAR     59  55  87 E3        30.08F
BOWLING GREEN  CLEAR     56  55  97 CALM      30.09F
GLASGOW        CLEAR     54  54 100 CALM      30.10F
$$

KYZ024-025-028>034-038-045-046-053-281100-
NORTH CENTRAL KENTUCKY

CITY           SKY/WX    TMP DP  RH WIND       PRES   REMARKS
LOUISVILLE/SDF CLEAR     59  53  80 CALM      30.09F
LOUISVILLE/LOU CLEAR     60  51  72 CALM      30.10F
FORT KNOX      CLEAR     54  54 100 CALM      30.10R
$$

KYZ035>037-039>044-047>052-055>060-089>105-281100-
NORTHEAST KENTUCKY

CITY           SKY/WX    TMP DP  RH WIND       PRES   REMARKS
LEXINGTON      PTCLDY    56  48  74 SE8       30.13F
COVINGTON      CLEAR     56  51  84 S5        30.11F
FRANKFORT      CLEAR     53  49  86 CALM      30.11F
$$

KYZ054-064>069-076>088-106>120-281100-
SOUTHEAST KENTUCKY

CITY           SKY/WX    TMP DP  RH WIND       PRES   REMARKS
JACKSON        CLEAR     55  49  80 CALM      30.17R
LONDON         CLEAR     52  49  89 CALM      30.17R
SOMERSET       PTCLDY    50  50 100 CALM      30.16S
MIDDLESBORO    CLEAR     50  50 100 CALM      30.21R
MONTICELLO     SUNNY     51  50  96 W3        30.16S
$$





USA.gov is the U.S. government's official web portal to all federal, state and local government web resources and services.